map of CXR home
CXR - Airport
Location
City:  Nha Trang, Vietnam
Near (Alt.):Cam Ranh
Name:Cam Ranh International Airport
ICAO:VVCR
IATA:CXR

Details
Type:Airport (Aerodrome, Airfield)
Use:Public/Civil, International (customs port of entry)
Latitude:1159'53"N (11.998153)
Longitude:10913'10"E (109.219372)
Datum:WGS 1984
Elevation:40 ft (12 m)
Variation:0.84W (WMM2015v2 magnetic declination)
-0.05 annual change
Runways:1
Longest:10000 × 150 ft (3048 × 45.5 m), paved

Time
Time Zone:UTC+7
Local Time:

Weather
METAR:VVCR 041400Z 06007KT 9999 FEW017 SCT060 26/23 Q1016 NOSIG
TAF:VVCR 041100Z 0412/0512 08012KT 9999 FEW017 SCT060
BECMG 0416/0417 01003KT
BECMG 0501/0503 08010KT

Related Locations
Nearby:
Farthest:SPNU: 12442 mi / 20024 km
Manu [Manu Airport], MDD, PE

Find:

   beyond  
but within

Other Information
Maps:
NOTAMs:
Links:
Sources:

  
  • flag of Vietnam
  

Sectional Chart

Flight Planning
at skyvector.com

Satellite Image

Google Maps Satellite view

 

Copyright © 2004-2019 Karl L. Swartz. All rights reserved.
The Great Circle Mapper name and logo are trademarks of the Great Circle Mapper.
All other trademarks mentioned herein belong to their respective owners.
Please see credits for attibutions and further copyright information.

  Follow gcmap on Facebook Follow gcmap on Twitter GCmap on LinkedIn

hCard Microformat

Geo Microformat